This is the latest recevied weather packets stored in our database for station/object F1ZVN-13. If no packets are shown the sender has not sent any weather packets the latest 10 day(s).
| Time | Temp. | Humidity | Pressure | Rain* | Wind** | Luminosity | Snow |
|---|---|---|---|---|---|---|---|
| 1777551877 | 8.33° C | 87% | 1010.2 hPa | 0 mm | 0 m/s | - | - |
| 1777551750 | 8.33° C | 86% | 1010.1 hPa | 0 mm | 0 m/s | - | - |
| 1777551629 | 8.33° C | 83% | 1010.1 hPa | 0 mm | 0 m/s | - | - |
| 1777551509 | 8.33° C | 83% | 1010.2 hPa | 0 mm | 0 m/s | - | - |
| 1777551388 | 8.33° C | 85% | 1010.2 hPa | 0 mm | 0 m/s | - | - |
| 1777551144 | 8.33° C | 90% | 1010.2 hPa | 0 mm | 0 m/s | - | - |
| 1777551024 | 8.33° C | 90% | 1010.4 hPa | 0 mm | 0 m/s | - | - |
| 1777550778 | 8.33° C | 91% | 1010.2 hPa | 0 mm | 0 m/s | - | - |
| 1777550536 | 8.89° C | 88% | 1010.2 hPa | 0 mm | 0 m/s | - | - |
| 1777550413 | 8.89° C | 91% | 1010.1 hPa | 0 mm | 0 m/s | - | - |
| 1777550298 | 8.89° C | 91% | 1010.1 hPa | 0 mm | 0 m/s | - | - |
| 1777550177 | 8.89° C | 90% | 1010.1 hPa | 0 mm | 0 m/s | - | - |
| 1777550053 | 8.89° C | 91% | 1010.1 hPa | 0 mm | 0 m/s | - | - |
| 1777549932 | 8.89° C | 89% | 1010 hPa | 0 mm | 0 m/s | - | - |
| 1777549813 | 8.89° C | 89% | 1010 hPa | 0 mm | 0 m/s | - | - |
| 1777549445 | 8.33° C | 88% | 1010.1 hPa | 0 mm | 0 m/s | - | - |
| 1777549325 | 8.33° C | 88% | 1010 hPa | 0 mm | 0 m/s | - | - |
| 1777549201 | 8.33° C | 88% | 1010 hPa | 0 mm | 0 m/s | - | - |
| 1777548841 | 8.33° C | 86% | 1010.1 hPa | 0 mm | 0 m/s | - | - |
| 1777548599 | 8.33° C | 87% | 1010.4 hPa | 0 mm | 0 m/s | - | - |
| 1777548475 | 8.33° C | 87% | 1010.4 hPa | 0 mm | 0 m/s | - | - |
| 1777548356 | 8.33° C | 87% | 1010.2 hPa | 0 mm | 0 m/s | - | - |
| 1777548234 | 8.33° C | 87% | 1010.2 hPa | 0 mm | 0 m/s | - | - |
| 1777547747 | 8.89° C | 84% | 1010.2 hPa | 0 mm | 0 m/s | - | - |
| 1777547626 | 8.89° C | 83% | 1010.1 hPa | 0 mm | 0 m/s | - | - |
* Rain latest hour (hover to see other rain measurements)
** Current wind speed in m/s (hover to see current wind gust speed)